When you browse on this site, cookies collect data to enhance your experience and personalize the content and advertising you see.
Visit our Privacy Policy to learn more. By continuing to use the site, you agree to this use of cookies and data.
  • In Hungary
  • List of Countries
  • For 7 days
  • Water Temperature
  • Satellite Maps
  • Weather Map
  • News
  • Weather Widgets
  • user-avatar
    Login

    Hourly Weather Chandrakona

    Today, 20 November, Tuesday

    Time Temperature Precipitation Wind Pressure Humidity
    00:00 +24°C° 0 mm 1 mps 758 mmHg 61%
    01:00 +24°C° 0 mm 1 mps 758 mmHg 64%
    02:00 +24°C° 0 mm 1 mps 758 mmHg 66%
    03:00 +23°C° 0 mm 1 mps 757 mmHg 68%
    04:00 +23°C° 0 mm 1 mps 758 mmHg 70%
    05:00 +23°C° 0 mm 1 mps 758 mmHg 71%
    06:00 +22°C° 0 mm 1 mps 758 mmHg 72%
    07:00 +24°C° 0 mm 1 mps 758 mmHg 67%
    08:00 +25°C° 0 mm 2 mps 758 mmHg 61%
    09:00 +27°C° 0 mm 2 mps 759 mmHg 55%
    10:00 +28°C° 0 mm 2 mps 758 mmHg 49%
    11:00 +30°C° 0 mm 2 mps 758 mmHg 43%
    12:00 +31°C° 0 mm 2 mps 758 mmHg 36%
    13:00 +32°C° 0 mm 2 mps 757 mmHg 33%
    14:00 +32°C° 0 mm 2 mps 757 mmHg 30%
    15:00 +34°C° 0 mm 2 mps 756 mmHg 27%
    16:00 +31°C° 0 mm 2 mps 756 mmHg 30%
    17:00 +29°C° 0 mm 1 mps 756 mmHg 33%
    18:00 +27°C° 0 mm 1 mps 757 mmHg 36%
    19:00 +27°C° 0 mm 1 mps 757 mmHg 37%
    20:00 +26°C° 0 mm 1 mps 758 mmHg 39%
    21:00 +25°C° 0 mm 1 mps 758 mmHg 40%
    22:00 +25°C° 0 mm 1 mps 758 mmHg 41%
    23:00 +24°C° 0 mm 1 mps 758 mmHg 43%

    Tomorrow, 21 November, Wednesday

    Time Temperature Precipitation Wind Pressure Humidity
    00:00 +24°C° 0 mm 1 mps 758 mmHg 44%
    01:00 +23°C° 0 mm 1 mps 758 mmHg 45%
    02:00 +23°C° 0 mm 1 mps 758 mmHg 46%
    03:00 +21°C° 0 mm 2 mps 758 mmHg 47%
    04:00 +21°C° 0 mm 2 mps 758 mmHg 48%
    05:00 +22°C° 0 mm 1 mps 758 mmHg 49%
    06:00 +21°C° 0 mm 1 mps 758 mmHg 50%
    07:00 +23°C° 0 mm 1 mps 759 mmHg 47%
    08:00 +25°C° 0 mm 1 mps 759 mmHg 45%
    09:00 +26°C° 0 mm 1 mps 760 mmHg 42%
    10:00 +28°C° 0 mm 2 mps 759 mmHg 38%
    11:00 +29°C° 0 mm 2 mps 759 mmHg 34%
    12:00 +31°C° 0 mm 2 mps 758 mmHg 30%
    13:00 +31°C° 0 mm 3 mps 758 mmHg 29%
    14:00 +31°C° 0 mm 3 mps 757 mmHg 28%
    15:00 +33°C° 0 mm 3 mps 756 mmHg 26%
    16:00 +30°C° 0 mm 2 mps 756 mmHg 30%
    17:00 +28°C° 0 mm 2 mps 756 mmHg 33%
    18:00 +26°C° 0 mm 1 mps 757 mmHg 36%
    19:00 +26°C° 0 mm 1 mps 757 mmHg 38%
    20:00 +25°C° 0 mm 1 mps 758 mmHg 40%
    21:00 +22°C° 0 mm 0 mps 759 mmHg 42%
    22:00 +24°C° 0 mm 1 mps 759 mmHg 43%
    23:00 +23°C° 0 mm 1 mps 759 mmHg 44%

    Day after tomorrow, 22 November, Thursday

    Time Temperature Precipitation Wind Pressure Humidity
    00:00 +23°C° 0 mm 1 mps 759 mmHg 45%
    01:00 +22°C° 0 mm 1 mps 758 mmHg 46%
    02:00 +22°C° 0 mm 1 mps 758 mmHg 47%
    03:00 +22°C° 0 mm 1 mps 758 mmHg 48%
    04:00 +21°C° 0 mm 1 mps 758 mmHg 50%
    05:00 +21°C° 0 mm 1 mps 759 mmHg 51%
    06:00 +20°C° 0 mm 1 mps 759 mmHg 52%
    07:00 +22°C° 0 mm 1 mps 759 mmHg 50%
    08:00 +24°C° 0 mm 1 mps 760 mmHg 47%
    09:00 +25°C° 0 mm 1 mps 760 mmHg 45%
    10:00 +27°C° 0 mm 2 mps 760 mmHg 40%
    11:00 +29°C° 0 mm 2 mps 759 mmHg 35%
    12:00 +30°C° 0 mm 2 mps 759 mmHg 30%
    13:00 +30°C° 0 mm 3 mps 758 mmHg 29%
    14:00 +31°C° 0 mm 3 mps 757 mmHg 28%
    15:00 +31°C° 0 mm 3 mps 757 mmHg 26%
    16:00 +29°C° 0 mm 2 mps 757 mmHg 30%
    17:00 +28°C° 0 mm 2 mps 757 mmHg 33%
    18:00 +26°C° 0 mm 1 mps 757 mmHg 37%
    19:00 +25°C° 0 mm 1 mps 758 mmHg 38%
    20:00 +24°C° 0 mm 1 mps 758 mmHg 40%
    21:00 +24°C° 0 mm 1 mps 759 mmHg 42%
    22:00 +23°C° 0 mm 1 mps 759 mmHg 43%
    23:00 +23°C° 0 mm 1 mps 759 mmHg 44%

    23 November, Friday

    Time Temperature Precipitation Wind Pressure Humidity
    00:00 +22°C° 0 mm 1 mps 759 mmHg 45%
    01:00 +22°C° 0 mm 1 mps 759 mmHg 46%
    02:00 +20°C° 0 mm 2 mps 758 mmHg 47%
    03:00 +20°C° 0 mm 2 mps 758 mmHg 47%
    04:00 +19°C° 0 mm 2 mps 758 mmHg 48%
    05:00 +19°C° 0 mm 2 mps 759 mmHg 48%
    06:00 +19°C° 0 mm 2 mps 759 mmHg 49%
    07:00 +20°C° 0 mm 2 mps 759 mmHg 46%
    08:00 +23°C° 0 mm 2 mps 760 mmHg 43%
    09:00 +25°C° 0 mm 2 mps 760 mmHg 40%
    10:00 +26°C° 0 mm 2 mps 760 mmHg 36%
    11:00 +28°C° 0 mm 2 mps 759 mmHg 32%
    12:00 +30°C° 0 mm 3 mps 759 mmHg 28%
    13:00 +30°C° 0 mm 3 mps 758 mmHg 26%
    14:00 +30°C° 0 mm 3 mps 757 mmHg 25%
    15:00 +31°C° 0 mm 3 mps 757 mmHg 24%
    16:00 +29°C° 0 mm 2 mps 757 mmHg 27%
    17:00 +27°C° 0 mm 1 mps 757 mmHg 30%
    18:00 +25°C° 0 mm 1 mps 757 mmHg 32%
    19:00 +24°C° 0 mm 1 mps 758 mmHg 34%
    20:00 +24°C° 0 mm 1 mps 758 mmHg 35%
    21:00 +23°C° 0 mm 1 mps 759 mmHg 36%
    22:00 +23°C° 0 mm 1 mps 759 mmHg 37%
    23:00 +22°C° 0 mm 1 mps 759 mmHg 38%

    24 November, Saturday

    Time Temperature Precipitation Wind Pressure Humidity
    00:00 +20°C° 0 mm 2 mps 759 mmHg 39%
    01:00 +20°C° 0 mm 2 mps 758 mmHg 40%
    02:00 +19°C° 0 mm 2 mps 758 mmHg 41%
    03:00 +19°C° 0 mm 2 mps 758 mmHg 42%
    04:00 +19°C° 0 mm 2 mps 758 mmHg 42%
    05:00 +18°C° 0 mm 2 mps 758 mmHg 43%
    06:00 +18°C° 0 mm 2 mps 759 mmHg 44%
    07:00 +19°C° 0 mm 2 mps 759 mmHg 42%
    08:00 +21°C° 0 mm 2 mps 760 mmHg 40%
    09:00 +24°C° 0 mm 2 mps 760 mmHg 38%
    10:00 +26°C° 0 mm 2 mps 760 mmHg 34%
    11:00 +27°C° 0 mm 2 mps 759 mmHg 31%
    12:00 +29°C° 0 mm 2 mps 759 mmHg 27%
    13:00 +29°C° 0 mm 2 mps 758 mmHg 26%
    14:00 +30°C° 0 mm 2 mps 757 mmHg 25%
    15:00 +30°C° 0 mm 2 mps 757 mmHg 25%
    16:00 +28°C° 0 mm 2 mps 757 mmHg 28%
    17:00 +26°C° 0 mm 2 mps 757 mmHg 32%
    18:00 +25°C° 0 mm 1 mps 757 mmHg 35%
    19:00 +24°C° 0 mm 1 mps 758 mmHg 37%
    20:00 +23°C° 0 mm 1 mps 758 mmHg 38%
    21:00 +23°C° 0 mm 1 mps 759 mmHg 40%
    22:00 +22°C° 0 mm 1 mps 758 mmHg 41%
    23:00 +21°C° 0 mm 2 mps 758 mmHg 43%

    25 November, Sunday

    Time Temperature Precipitation Wind Pressure Humidity
    00:00 +20°C° 0 mm 2 mps 758 mmHg 44%
    01:00 +20°C° 0 mm 2 mps 758 mmHg 46%
    02:00 +19°C° 0 mm 2 mps 758 mmHg 48%
    03:00 +19°C° 0 mm 2 mps 757 mmHg 50%
    04:00 +19°C° 0 mm 2 mps 757 mmHg 51%
    05:00 +18°C° 0 mm 2 mps 757 mmHg 52%
    06:00 +18°C° 0 mm 2 mps 758 mmHg 53%
    07:00 +20°C° 0 mm 2 mps 758 mmHg 50%
    08:00 +21°C° 0 mm 2 mps 759 mmHg 47%
    09:00 +24°C° 0 mm 2 mps 759 mmHg 44%
    10:00 +25°C° 0 mm 2 mps 758 mmHg 41%
    11:00 +27°C° 0 mm 2 mps 758 mmHg 39%
    12:00 +28°C° 0 mm 2 mps 757 mmHg 36%
    13:00 +29°C° 0 mm 2 mps 757 mmHg 35%
    14:00 +29°C° 0 mm 2 mps 756 mmHg 34%
    15:00 +30°C° 0 mm 2 mps 756 mmHg 33%
    16:00 +28°C° 0 mm 1 mps 756 mmHg 36%
    17:00 +27°C° 0 mm 1 mps 756 mmHg 40%
    18:00 +25°C° 0 mm 1 mps 756 mmHg 44%
    19:00 +25°C° 0 mm 1 mps 757 mmHg 45%
    20:00 +24°C° 0 mm 1 mps 757 mmHg 46%
    21:00 +23°C° 0 mm 1 mps 758 mmHg 47%
    22:00 +23°C° 0 mm 1 mps 758 mmHg 48%
    23:00 +23°C° 0 mm 1 mps 757 mmHg 49%
    Show more